Simultaneous Nadir Overpasses (SNOs) Predictions

Prediction of SNOs between NOAA-19 and TERRA Satellite Orbit:

Table of predicted SNOs for the next 14.0 days since TLE Epoch: 3/8/2025
Index Date (NOAA-19) Time (NOAA-19) Lat,Lon (NOAA-19) SZA (NOAA-19 ) Date (TERRA) Time (TERRA) Lat,Lon (TERRA) SZA (TERRA ) Distance(km) Time Diff (sec)
1 03/10/2025 05:06:18 -68.83, 44.62 76.20 03/10/2025 05:06:15 -68.84, 44.59 76.21 1.52 3
2 03/12/2025 08:04:46 -69.17, -0.41 77.22 03/12/2025 08:04:37 -69.18, -0.43 77.25 1.23 9
3 03/14/2025 11:03:12 -69.42, -45.31 78.17 03/14/2025 11:02:57 -69.43, -45.36 78.21 2.40 15
4 03/16/2025 13:11:46 72.96, 96.46 97.87 03/16/2025 13:12:59 72.98, 96.77 98.03 10.69 73
5 03/16/2025 14:01:43 -69.93, -90.64 79.37 03/16/2025 14:01:21 -69.93, -90.62 79.39 0.85 22
6 03/18/2025 16:09:47 71.93, 54.06 98.08 03/18/2025 16:10:54 71.93, 54.07 98.17 0.67 67
7 03/18/2025 17:00:12 -70.35,-135.85 80.48 03/18/2025 16:59:43 -70.34,-135.79 80.49 2.60 29
8 03/20/2025 19:08:09 71.96, 9.45 97.30 03/20/2025 19:09:09 71.97, 9.40 97.36 1.73 60



Historial Predications of SNOs between NOAA-19 and TERRA
